Weather past 2 weeks in Saipan, Northern Mariana Islands

Now
87 °F

Passing clouds.


Feels Like: 100 °F
Forecast: 74 / 81 °F
Wind: 6 mph from Northeast

Location: Saipan International Airport

Current Time: Aug 20, 2014 at 3:24:01 PM

Latest Report: Aug 20, 2014 at 2:54 PM


Visibility: 10 mi

Pressure: 29.88 "Hg

Humidity: 75%

Dew point: 78 °F

Location of SaipanLocation

Historic Weather in Saipan — Graph

°F

Saipan temperature yesterday

Maximum temperature yesterday: 85 °F (at 9:54 AM)
Minimum temperature yesterday: 80 °F (at 12:54 AM)
Average temperature yesterday: 83 °F

Past Weeks' High & Low Weather Summary

 TemperatureHumidityPressure
High88 °F (Aug 10, 10:54 AM)100% (Aug 10, 8:30 PM)29.99 "Hg (Aug 10, 8:30 PM)
Low77 °F (Aug 6, 11:56 AM)69% (Aug 15, 12:54 PM)29.74 "Hg (Aug 11, 2:56 PM)
Average82 °F85%29.89 "Hg
* Reported Aug 5 1:33 PM — Aug 20 1:54 PM, Saipan, Weather by CustomWeather, © 2014

Note: Actual official high and low records may vary slightly from our data, if they occured in-between our weather recording intervals... More about our weather records

Advertising

Saipan weather history for previous 24 hours

 ConditionsComfort  
Time TempWeatherWind HumidityBarometerVisibility
1:54 PM
Aug 20
87 °FPassing clouds.6 mph75%29.89 "Hg10 mi
12:54 PM88 °FPassing clouds.8 mph70%29.90 "Hg10 mi
11:54 AM87 °FScattered clouds.3 mph75%29.93 "Hg10 mi
10:54 AM87 °FSunny.8 mph75%29.95 "Hg10 mi
9:54 AM87 °FSunny.13 mph75%29.96 "Hg10 mi
8:54 AM86 °FSunny.10 mph77%29.95 "Hg10 mi
7:54 AM83 °FSunny.9 mph85%29.94 "Hg10 mi
6:54 AM82 °FSunny.8 mph88%29.91 "Hg10 mi
5:54 AM81 °FClear.9 mph88%29.89 "Hg10 mi
4:54 AM81 °FClear.9 mph88%29.89 "Hg10 mi
3:54 AM81 °FPassing clouds.7 mph91%29.88 "Hg10 mi
2:54 AM82 °FPassing clouds.7 mph88%29.88 "Hg10 mi
1:54 AM81 °FPassing clouds.9 mph88%29.88 "Hg10 mi
12:54 AM82 °FClear.12 mph88%29.90 "Hg10 mi
11:54 PM
Aug 19
83 °FPartly cloudy.8 mph85%29.93 "Hg10 mi
10:54 PM82 °FPassing clouds.8 mph85%29.94 "Hg10 mi
9:54 PM82 °FPassing clouds.7 mph91%29.95 "Hg10 mi
8:54 PM82 °FPassing clouds.7 mph88%29.94 "Hg10 mi
7:54 PM82 °FPassing clouds.7 mph88%29.93 "Hg10 mi
6:54 PM82 °FPassing clouds.7 mph88%29.93 "Hg10 mi
5:54 PM83 °FScattered clouds.8 mph85%29.93 "Hg10 mi
4:54 PM84 °FScattered clouds.10 mph83%29.92 "Hg10 mi
3:54 PM85 °FScattered clouds.9 mph80%29.91 "Hg10 mi
Weather by CustomWeather, © 2014

See weather overviewHow to use our weather pages